Dewpoint
68 71 73 73 71 71 70 70 69 70 70 71 71 71 71 71 70 70 71 71 71 70 70 70 69 68 68 69 68 68 68 67 67 68 67 67 67 66 66 67 67 67 67
69 71 72 72 71 70 70 70 69 70 71 71 71 71 71 70 70 69 69 69 70 69 69 69 69 68 69 69 69 67 67 66 67 68 67 66 66 67 66 66 68 68 67
68 71 72 72 71 70 70 70 70 70 71 71 71 70 70 70 69 69 69 68 68 67 67 68 68 68 69 69 68 67 66 66 66 67 67 66 66 65 66 67 67 66 67
68 70 72 72 71 71 70 70 70 71 71 71 70 70 70 69 69 69 68 68 67 66 66 67 67 68 69 69 68 68 67 66 65 65 65 66 65 66 65 65 67 66 66
66 70 71 71 71 71 70 70 71 71 70 70 70 69 69 68 68 68 68 67 67 66 65 65 66 68 68 68 67 67 67 66 66 64 64 64 64 66 66 66 66 66 66
66 69 71 71 71 71 70 71 71 70 70 69 70 69 69 68 68 68 68 67 67 66 65 65 65 65 66 67 67 66 66 66 65 64 64 65 64 65 66 66 66 66 66
67 68 70 70 70 71 71 71 70 69 69 69 69 69 69 69 68 68 68 67 66 66 65 64 64 63 62 63 65 66 66 65 65 64 64 64 65 65 65 65 65 65 65
67 67 69 70 70 70 71 70 69 68 68 68 69 69 69 69 68 67 67 67 66 64 63 63 64 63 63 63 63 63 64 65 65 64 64 65 66 65 65 64 64 63 64
66 66 67 69 69 70 69 68 68 68 68 68 69 69 69 68 68 68 67 67 65 63 60 58 59 63 63 65 65 65 65 65 65 64 64 65 65 65 64 63 62 62 61
66 67 67 68 69 68 68 67 67 67 68 68 68 69 68 67 67 67 67 66 65 62 60 56 53 55 62 64 64 64 64 64 64 63 63 65 65 64 63 63 61 60 59
66 66 67 67 68 68 68 68 67 67 68 68 68 69 68 67 67 66 66 66 65 63 60 57 54 52 56 62 63 64 64 64 64 63 64 65 65 64 63 61 61 59 58
66 66 66 66 67 68 68 68 67 67 68 68 68 68 67 66 65 65 65 65 64 63 61 59 57 55 52 56 61 63 63 63 61 59 64 64 64 64 63 61 60 59 57
67 66 66 66 66 67 67 67 67 67 67 67 68 68 67 66 66 65 64 64 64 63 61 60 58 57 53 50 49 61 61 61 59 59 63 64 64 64 63 61 61 59 57
67 66 66 67 67 67 67 66 66 66 66 66 67 67 66 66 64 64 63 62 61 61 60 59 58 57 55 53 56 60 59 58 59 60 63 63 63 64 63 62 61 59 57
64 65 66 67 67 67 68 67 66 66 66 66 67 67 66 65 65 65 64 63 62 62 60 61 59 59 59 59 58 56 54 53 52 59 62 63 63 62 61 62 61 60 58
62 63 67 67 68 68 68 68 67 67 67 67 67 67 67 66 65 65 64 64 63 63 61 62 61 61 62 61 58 56 56 55 54 55 60 62 62 62 62 61 62 61 59
61 62 67 68 68 68 68 68 68 68 67 67 67 67 67 66 65 65 64 64 63 64 63 63 62 62 61 61 59 58 56 55 55 56 57 59 61 61 61 61 60 62 61
60 62 65 67 67 68 68 66 67 68 67 67 68 68 67 67 65 64 64 64 64 64 63 62 61 61 60 59 59 58 58 57 56 56 55 55 58 60 60 61 61 60 60
60 62 65 66 66 66 66 66 65 66 66 67 67 67 67 66 66 65 64 64 64 64 63 61 60 59 57 57 58 58 58 57 57 56 56 56 57 58 59 60 60 60 60
59 62 65 66 66 66 66 66 64 64 65 66 65 66 66 66 65 65 64 64 64 63 62 61 60 59 58 58 58 56 56 57 57 56 56 56 55 56 57 59 58 59 59
59 61 65 66 66 66 65 64 64 64 65 65 65 65 65 65 65 65 65 64 63 63 60 60 59 58 56 56 55 55 55 56 55 56 56 56 56 55 55 57 57 58 58
57 60 62 66 66 65 64 64 64 64 65 64 65 65 65 65 65 65 65 65 63 60 59 57 55 56 56 56 54 53 49 48 53 55 56 55 55 54 55 56 57 57 58
56 60 62 64 65 65 64 64 65 65 64 64 64 63 64 65 65 65 65 64 61 59 58 56 56 55 52 53 54 51 48 44 49 49 52 53 54 54 54 54 54 55 55
56 60 64 65 65 65 65 64 64 63 62 63 63 63 65 65 65 66 65 61 59 58 56 56 55 52 52 49 51 52 53 52 49 47 48 50 52 52 52 52 52 52 52
51 52 61 66 66 65 65 64 64 63 62 63 63 63 63 65 65 65 62 60 59 57 56 54 53 53 52 51 51 50 50 51 52 50 46 47 48 51 52 52 51 51 51
52 56 59 60 66 66 65 65 64 63 63 62 62 63 63 64 65 63 60 59 56 53 50 50 51 52 52 52 52 52 51 50 48 48 47 47 46 47 49 51 50 50 50
Wind_Speed
8 12 18 18 20 21 21 22 22 21 19 18 17 17 17 17 17 18 17 16 15 14 13 12 12 12 12 13 13 12 13 13 12 13 14 15 15 16 19 17 15 14 14
21 17 20 19 20 21 22 22 22 20 19 18 17 17 17 16 16 16 15 13 13 12 12 11 11 10 10 10 10 9 11 10 10 11 13 14 15 15 15 15 13 13 13
20 19 19 19 20 21 21 22 22 21 19 18 17 17 16 16 15 14 14 12 12 11 10 9 9 9 8 8 8 7 7 6 6 5 5 9 12 13 13 12 10 11 13
20 18 17 19 20 21 21 21 21 20 18 18 17 16 15 15 14 13 12 12 10 10 10 9 8 8 7 6 5 3 3 3 3 3 3 6 12 11 10 10 11 9 11
18 18 18 20 20 22 22 21 20 20 18 17 16 16 15 13 12 12 11 10 10 9 8 8 7 7 6 5 3 0 3 5 7 7 5 10 11 11 11 10 10 11 10
19 17 20 19 20 21 20 20 20 20 19 18 17 16 14 13 12 11 10 9 9 9 8 6 5 4 3 2 1 3 4 4 8 9 3 9 9 11 11 11 10 10 10
20 19 18 20 20 20 20 20 20 19 18 18 17 15 14 13 11 11 9 9 8 7 7 5 4 3 2 1 1 4 7 8 7 8 4 10 8 8 10 10 9 9 9
23 22 19 19 19 19 19 19 19 19 18 17 17 16 14 13 12 11 9 8 8 6 5 4 3 1 1 3 3 5 7 7 9 12 9 10 10 10 10 10 9 7 7
21 21 17 16 17 19 20 19 18 18 18 17 16 15 14 12 11 11 9 8 8 6 5 4 3 1 1 3 4 5 8 6 6 9 4 10 11 9 10 10 7 6 6
17 18 20 18 16 15 16 18 18 17 17 16 16 15 14 13 12 11 11 10 8 6 4 2 1 1 2 3 4 5 7 8 6 10 7 9 12 8 7 9 8 5 4
18 19 18 19 18 17 16 16 17 18 17 16 15 15 14 11 12 13 12 11 10 8 6 5 5 4 5 5 7 7 8 8 8 6 4 16 15 11 9 8 8 7 4
20 20 19 19 19 18 15 16 16 15 14 13 13 14 13 14 13 12 12 16 13 13 14 11 10 9 9 8 7 9 9 10 10 3 10 19 15 11 9 8 7 7 4
23 19 19 18 19 19 16 15 12 12 13 13 15 15 15 13 13 12 13 12 12 12 9 10 10 9 10 8 10 11 10 11 10 5 11 18 15 13 13 11 10 7 5
28 27 25 19 21 20 16 16 15 14 15 15 16 17 15 13 14 14 15 13 12 11 11 11 10 11 11 11 9 11 10 6 7 3 10 16 15 14 13 11 11 10 9
27 27 30 26 23 19 18 17 17 18 18 16 16 17 16 16 17 16 14 13 14 13 13 11 11 12 10 7 4 6 8 6 5 2 9 17 17 15 11 11 13 13 12
29 28 28 28 26 21 20 19 17 17 17 18 16 18 20 17 17 15 15 15 15 13 11 10 8 4 4 3 4 6 7 7 4 1 2 7 14 13 13 13 14 15 15
30 28 31 28 26 24 19 17 17 16 17 17 16 20 20 18 18 17 13 11 11 11 9 6 4 2 2 2 4 5 7 8 7 5 3 2 8 13 16 13 15 18 17
30 31 28 25 26 24 20 17 14 17 16 16 16 16 19 21 18 16 16 12 10 8 8 6 4 3 4 5 5 6 9 7 9 10 11 10 6 8 13 17 16 17 20
34 32 30 28 29 26 21 17 16 15 13 16 16 16 18 19 18 15 13 12 11 11 12 10 7 8 7 6 4 5 6 8 9 9 11 12 9 9 9 13 17 18 18
32 34 32 29 28 26 21 16 16 19 14 15 17 17 19 17 16 15 14 13 13 13 15 11 11 7 4 5 5 8 10 13 12 13 15 13 13 12 11 12 11 14 20
30 32 31 29 28 25 24 22 19 22 18 15 14 17 15 16 18 17 16 16 16 18 13 11 9 8 5 4 3 5 11 14 14 16 11 13 14 12 13 15 13 12 13
32 33 31 29 30 28 25 25 19 18 11 13 12 14 18 18 17 17 17 17 18 14 15 12 10 6 5 4 5 4 4 5 5 10 11 15 16 13 12 6 3 6 10
26 30 31 29 31 27 23 20 14 12 9 13 15 17 17 15 20 19 19 17 17 18 16 13 12 11 9 6 9 3 3 4 7 7 8 13 15 12 12 9 9 8 8
17 18 19 20 23 20 23 24 25 26 23 22 21 16 13 19 19 20 20 19 18 16 15 13 14 13 9 10 4 8 8 7 5 9 3 4 11 16 16 13 12 11 11
13 16 22 23 21 20 24 24 26 26 21 17 16 17 20 18 20 20 17 18 16 17 15 15 14 12 12 9 9 7 8 8 10 11 18 7 4 10 14 14 14 15 11
9 9 10 16 25 21 24 23 23 21 18 17 19 21 21 21 19 14 17 16 16 15 16 14 12 11 12 11 11 12 13 8 9 11 13 13 15 9 14 14 15 16 13
Wind_Direction
144 151 139 142 142 137 131 128 124 121 117 114 111 106 101 95 91 91 91 91 95 95 92 87 79 74 73 79 86 88 85 84 89 91 87 80 72 64 63 70 65 68 62
147 148 145 150 143 141 135 133 127 124 122 120 115 110 105 101 100 98 96 94 94 95 93 89 86 82 79 83 87 84 84 86 88 96 93 83 76 72 72 71 71 70 69
146 146 147 149 142 140 140 133 132 130 128 123 121 116 111 108 105 102 100 99 98 101 100 98 97 97 98 98 91 87 82 83 95 127 139 99 90 73 72 70 72 80 78
148 140 141 146 145 142 141 137 135 131 128 126 123 118 113 109 107 104 103 103 103 104 105 105 101 96 90 88 101 99 72 37 22 308 282 146 94 86 77 77 64 79 73
140 138 140 147 146 143 144 143 137 132 131 130 125 120 117 116 113 110 108 110 109 107 104 109 115 125 130 134 123 81 57 355 340 338 339 122 107 97 83 88 73 66 64
135 129 141 148 147 146 142 139 136 137 138 136 130 126 125 123 122 120 120 120 117 119 123 116 112 114 119 119 55 323 348 333 324 331 321 127 116 113 96 86 81 73 69
129 135 146 153 150 147 144 141 142 143 141 137 132 131 130 131 135 128 132 128 114 107 106 120 135 122 124 174 284 309 313 326 333 321 17 123 114 109 111 101 87 70 68
141 147 153 156 152 144 142 143 146 146 143 141 140 141 140 142 138 138 140 130 120 127 136 146 117 79 1 322 309 305 305 324 331 323 334 147 146 149 123 102 97 95 72
143 145 149 150 147 147 147 149 152 148 146 147 147 147 148 145 151 150 146 143 144 153 165 146 134 152 327 319 309 300 300 309 298 299 319 148 160 152 132 122 113 97 97
140 144 150 152 149 147 149 155 155 152 152 153 153 154 154 160 162 163 166 168 165 174 164 156 164 336 338 311 307 286 282 283 251 261 263 188 161 164 143 134 131 126 112
150 153 158 157 157 154 154 160 158 159 159 161 159 163 164 169 176 185 185 180 177 180 174 192 202 213 232 239 247 262 273 272 283 289 223 171 166 171 162 152 144 134 135
158 161 165 163 163 159 161 161 163 162 165 167 168 171 176 188 193 195 189 183 188 186 194 196 204 214 225 228 240 243 255 272 271 264 185 172 180 166 172 164 156 158 153
160 166 168 168 168 167 165 166 165 166 171 176 179 183 193 202 206 200 189 192 191 198 203 208 211 220 235 223 238 228 240 257 261 251 189 186 180 172 187 174 162 169 172
171 170 175 175 174 175 158 170 171 172 179 186 191 189 195 202 196 186 193 196 199 201 214 220 217 228 233 242 223 207 226 240 266 238 186 191 196 191 194 188 179 179 186
176 175 177 173 177 182 165 176 176 182 188 190 190 191 195 202 203 198 210 200 201 202 209 217 220 237 243 247 303 267 252 253 262 153 195 202 205 207 225 205 203 200 194
179 172 170 172 171 173 177 181 180 185 186 189 193 192 196 204 206 213 217 216 199 208 208 214 209 138 66 50 45 22 343 315 293 124 124 227 224 219 226 226 222 219 216
177 168 165 166 166 172 183 185 186 186 185 191 192 190 196 203 206 209 214 197 188 186 183 162 139 62 349 357 338 347 346 331 341 345 356 0 235 251 258 250 234 222 226
169 171 169 169 171 171 182 188 178 184 194 200 197 196 195 203 205 206 193 187 183 181 178 170 172 233 217 251 256 292 290 286 291 296 298 293 251 258 256 251 244 237 221
166 168 171 171 176 178 179 190 199 196 199 207 195 195 198 200 196 182 184 195 191 188 184 191 197 194 218 245 276 282 287 284 277 288 288 287 277 259 267 272 257 254 246
166 170 169 171 172 173 171 177 201 215 219 204 191 195 197 195 193 185 188 198 201 198 200 196 193 189 190 205 245 256 267 267 275 276 271 277 276 270 260 252 257 249 251
163 169 166 167 171 165 172 175 193 208 214 205 184 182 185 190 200 197 194 201 207 201 195 165 152 166 205 198 286 290 269 256 253 250 253 262 265 265 265 254 252 251 253
169 174 170 170 166 174 175 182 187 195 204 214 197 200 196 201 205 206 196 205 208 170 161 158 162 176 210 191 211 235 305 316 287 264 245 245 251 261 266 245 246 259 258
167 172 175 171 173 175 172 171 166 165 180 204 213 216 218 208 207 205 203 206 196 171 173 172 173 186 202 217 211 205 312 267 305 263 243 245 251 248 256 265 268 267 274
127 148 168 173 174 174 170 178 181 189 200 208 207 207 213 211 217 204 204 186 173 170 176 181 185 189 182 211 229 229 230 240 288 309 265 274 249 244 251 260 266 268 271
142 151 158 177 178 184 185 188 192 196 203 193 188 191 212 212 215 211 191 175 177 181 181 183 186 197 194 197 203 212 249 259 252 253 288 274 264 249 249 250 259 263 256
139 139 142 132 193 186 185 192 197 202 197 188 193 196 207 212 211 198 178 185 187 171 178 187 191 198 202 209 214 225 228 219 247 253 269 279 278 270 247 237 246 251 251